Retour au catalogue

COSMOS 2251 DEB

ActifLEO
NORAD 36451·DEBRIS·🇷🇺 Russia

Lancé Jun 16, 1993 depuis Plesetsk Cosmodrome

Loading…

Prochains Passages (prochaines 24 heures)

TLE

VieillissantSource: Space-Track

Époque: Sep 12, 2026, 05:05 UTC

1 36451U 93036BBA 26255.21204917  .00001379  00000-0  56188-3 0  9997
2 36451  73.9522 203.8999 0183517 327.6367  31.3621 14.19708916881052

Suivez COSMOS 2251 DEB en temps réel avec AllMySat

Download on the App Store